PGT4585 KSEA-KSLC

Flight info

Callsign PGT4585
Flight time 1h 38m
Altitude 35000
Route SUMMA2 SUMMA WANTA Q154 BYI SKEES6
Aircraft B738/M-SDE2E3FGIRWXY/LB1

Departure

Time 2026-05-05 20:49
Airport Seattle–Tacoma International Airport (KSEA)

Arrival

Time 2026-05-05 22:27
Airport Salt Lake City International Airport (KSLC)
Time Latitude Longitude Altitude Speed Heading
2026-05-05 20:01 47.44841 -122.30074 408 ft 0 kts 248°
2026-05-05 20:04 47.44841 -122.30073 408 ft 0 kts 248°
2026-05-05 20:10 47.44842 -122.30073 408 ft 0 kts 248°
2026-05-05 20:30 47.44844 -122.30063 409 ft 4 kts 247°
2026-05-05 20:30 47.44854 -122.30027 402 ft 4 kts 253°
2026-05-05 20:30 47.44856 -122.30004 402 ft 2 kts 295°
2026-05-05 20:31 47.44849 -122.29992 403 ft 2 kts 339°
2026-05-05 20:31 47.44838 -122.29987 400 ft 2 kts 346°
2026-05-05 20:31 47.44831 -122.29985 402 ft 0 kts 347°
2026-05-05 20:33 47.44842 -122.29989 405 ft 5 kts 345°
2026-05-05 20:34 47.44883 -122.30021 405 ft 7 kts 323°
2026-05-05 20:34 47.44918 -122.30072 406 ft 7 kts 313°
2026-05-05 20:34 47.44944 -122.30116 406 ft 0 kts 310°
2026-05-05 20:35 47.44948 -122.30122 407 ft 4 kts 311°
2026-05-05 20:35 47.44957 -122.30138 409 ft 0 kts 310°
2026-05-05 20:36 47.44957 -122.30137 409 ft 0 kts 310°
2026-05-05 20:37 47.44961 -122.30144 409 ft 3 kts 311°
2026-05-05 20:38 47.44980 -122.30177 408 ft 4 kts 311°
2026-05-05 20:38 47.44994 -122.30200 411 ft 4 kts 310°
2026-05-05 20:38 47.45017 -122.30240 408 ft 5 kts 311°
2026-05-05 20:38 47.45036 -122.30277 412 ft 5 kts 295°
2026-05-05 20:39 47.45041 -122.30329 412 ft 7 kts 273°
2026-05-05 20:39 47.45043 -122.30411 409 ft 7 kts 272°
2026-05-05 20:39 47.45044 -122.30480 413 ft 7 kts 270°
2026-05-05 20:39 47.45044 -122.30544 413 ft 6 kts 271°
2026-05-05 20:40 47.45047 -122.30602 413 ft 6 kts 283°
2026-05-05 20:40 47.45084 -122.30626 413 ft 9 kts 358°
2026-05-05 20:40 47.45152 -122.30625 407 ft 10 kts
2026-05-05 20:40 47.45200 -122.30625 416 ft 4 kts 360°
2026-05-05 20:41 47.45231 -122.30625 414 ft 6 kts
2026-05-05 20:41 47.45294 -122.30625 419 ft 12 kts 360°
2026-05-05 20:41 47.45392 -122.30624 423 ft 14 kts
2026-05-05 20:41 47.45484 -122.30624 421 ft 12 kts
2026-05-05 20:42 47.45567 -122.30623 432 ft 11 kts
2026-05-05 20:42 47.45639 -122.30622 432 ft 12 kts
2026-05-05 20:42 47.45717 -122.30620 433 ft 11 kts 360°
2026-05-05 20:42 47.45795 -122.30620 431 ft 11 kts
2026-05-05 20:43 47.45865 -122.30620 433 ft 10 kts
2026-05-05 20:43 47.45933 -122.30619 430 ft 10 kts
2026-05-05 20:43 47.46022 -122.30618 432 ft 16 kts
2026-05-05 20:43 47.46128 -122.30617 431 ft 14 kts
2026-05-05 20:44 47.46215 -122.30617 432 ft 10 kts
2026-05-05 20:44 47.46222 -122.30617 433 ft 4 kts
2026-05-05 20:44 47.46275 -122.30616 432 ft 9 kts
2026-05-05 20:44 47.46295 -122.30616 433 ft 0 kts
2026-05-05 20:45 47.46316 -122.30615 433 ft 5 kts
2026-05-05 20:45 47.46353 -122.30624 435 ft 6 kts 330°
2026-05-05 20:45 47.46378 -122.30697 441 ft 10 kts 258°
2026-05-05 20:46 47.46353 -122.30773 441 ft 8 kts 204°
2026-05-05 20:46 47.46336 -122.30775 436 ft 0 kts 180°
2026-05-05 20:48 47.46334 -122.30775 435 ft 1 kts 180°
2026-05-05 20:48 47.46183 -122.30777 429 ft 55 kts 180°
2026-05-05 20:49 47.45569 -122.30784 428 ft 120 kts 181°
2026-05-05 20:49 47.44550 -122.30797 462 ft 167 kts 182°
2026-05-05 20:49 47.43405 -122.30779 1276 ft 164 kts 182°
2026-05-05 20:49 47.42225 -122.30778 1914 ft 179 kts 182°
2026-05-05 20:50 47.40862 -122.30787 2175 ft 211 kts 182°
2026-05-05 20:50 47.39298 -122.30801 2424 ft 237 kts 182°
2026-05-05 20:50 47.37570 -122.30816 2873 ft 255 kts 181°
2026-05-05 20:50 47.35783 -122.30834 3605 ft 265 kts 181°
2026-05-05 20:51 47.33911 -122.30854 4382 ft 273 kts 180°
2026-05-05 20:51 47.31975 -122.30877 5112 ft 281 kts 181°
2026-05-05 20:51 47.30028 -122.30902 6046 ft 281 kts 180°
2026-05-05 20:51 47.28060 -122.30929 6839 ft 285 kts 180°
2026-05-05 20:52 47.26072 -122.30955 7725 ft 285 kts 180°
2026-05-05 20:52 47.24074 -122.30791 8432 ft 293 kts 163°
2026-05-05 20:52 47.22294 -122.29398 9335 ft 290 kts 147°
2026-05-05 20:52 47.20446 -122.28152 10085 ft 296 kts 161°
2026-05-05 20:53 47.18472 -122.27178 10471 ft 314 kts 161°
2026-05-05 20:53 47.16311 -122.26127 10678 ft 338 kts 161°
2026-05-05 20:53 47.14043 -122.25016 11201 ft 348 kts 161°
2026-05-05 20:53 47.11731 -122.23872 11872 ft 353 kts 160°
2026-05-05 20:54 47.09391 -122.22704 12593 ft 357 kts 160°
2026-05-05 20:54 47.07020 -122.21514 13261 ft 363 kts 160°
2026-05-05 20:54 47.04615 -122.20302 13920 ft 369 kts 160°
2026-05-05 20:54 47.02170 -122.19069 14525 ft 373 kts 159°
2026-05-05 20:55 46.99733 -122.17840 15141 ft 377 kts 159°
2026-05-05 20:55 46.97242 -122.16583 15769 ft 381 kts 159°
2026-05-05 20:55 46.94717 -122.15311 16389 ft 385 kts 159°
2026-05-05 20:55 46.92169 -122.14028 16984 ft 390 kts 159°
2026-05-05 20:56 46.89590 -122.12731 17580 ft 394 kts 159°
2026-05-05 20:56 46.86979 -122.11419 18176 ft 399 kts 159°
2026-05-05 20:56 46.84338 -122.10094 18719 ft 403 kts 159°
2026-05-05 20:56 46.81672 -122.08757 19240 ft 407 kts 158°
2026-05-05 20:57 46.79039 -122.07439 19765 ft 410 kts 159°
2026-05-05 20:57 46.76312 -122.06075 20282 ft 414 kts 159°
2026-05-05 20:57 46.73571 -122.04705 20772 ft 418 kts 159°
2026-05-05 20:57 46.70804 -122.03324 21264 ft 423 kts 159°
2026-05-05 20:58 46.68008 -122.01929 21767 ft 426 kts 159°
2026-05-05 20:58 46.65192 -122.00527 22260 ft 430 kts 159°
2026-05-05 20:58 46.62497 -121.98673 22700 ft 429 kts 140°
2026-05-05 20:58 46.60424 -121.95636 23185 ft 422 kts 120°
2026-05-05 20:59 46.58925 -121.91977 23677 ft 422 kts 115°
2026-05-05 20:59 46.57521 -121.88284 24107 ft 425 kts 114°
2026-05-05 20:59 46.56066 -121.84470 24578 ft 427 kts 115°
2026-05-05 20:59 46.54624 -121.80748 24957 ft 431 kts 115°
2026-05-05 21:00 46.53136 -121.76958 25352 ft 433 kts 115°
2026-05-05 21:00 46.51630 -121.73159 25755 ft 436 kts 116°
2026-05-05 21:00 46.50108 -121.69332 26097 ft 439 kts 116°
2026-05-05 21:00 46.48577 -121.65491 26504 ft 441 kts 116°
2026-05-05 21:01 46.47037 -121.61640 26887 ft 443 kts 116°
2026-05-05 21:01 46.45442 -121.57793 27256 ft 446 kts 117°
2026-05-05 21:01 46.43801 -121.53956 27599 ft 449 kts 118°
2026-05-05 21:01 46.42136 -121.50106 27922 ft 452 kts 118°
2026-05-05 21:02 46.40484 -121.46298 28289 ft 454 kts 118°
2026-05-05 21:02 46.38804 -121.42421 28641 ft 456 kts 118°
2026-05-05 21:02 46.37115 -121.38518 28970 ft 458 kts 118°
2026-05-05 21:02 46.35425 -121.34605 29262 ft 460 kts 118°
2026-05-05 21:03 46.33724 -121.30665 29547 ft 463 kts 118°
2026-05-05 21:03 46.32012 -121.26700 29848 ft 465 kts 118°
2026-05-05 21:03 46.30292 -121.22722 30137 ft 467 kts 118°
2026-05-05 21:03 46.28568 -121.18739 30456 ft 467 kts 118°
2026-05-05 21:04 46.26864 -121.14809 30807 ft 467 kts 118°
2026-05-05 21:04 46.25142 -121.10845 31152 ft 466 kts 118°
2026-05-05 21:04 46.23420 -121.06886 31478 ft 466 kts 118°
2026-05-05 21:04 46.21694 -121.02923 31789 ft 466 kts 118°
2026-05-05 21:05 46.19969 -120.98968 32119 ft 466 kts 118°
2026-05-05 21:05 46.18239 -120.95006 32455 ft 465 kts 118°
2026-05-05 21:05 46.16516 -120.91066 32760 ft 465 kts 117°
2026-05-05 21:05 46.14789 -120.87122 33075 ft 465 kts 117°
2026-05-05 21:06 46.13083 -120.83232 33344 ft 466 kts 117°
2026-05-05 21:06 46.11352 -120.79287 33586 ft 465 kts 117°
2026-05-05 21:06 46.09618 -120.75347 33861 ft 464 kts 117°
2026-05-05 21:06 46.07895 -120.71436 34101 ft 462 kts 117°
2026-05-05 21:07 46.06172 -120.67529 34328 ft 461 kts 117°
2026-05-05 21:07 46.04455 -120.63642 34551 ft 459 kts 117°
2026-05-05 21:07 46.02767 -120.59827 34769 ft 457 kts 117°
2026-05-05 21:07 46.01057 -120.55965 34932 ft 459 kts 117°
2026-05-05 21:08 45.97593 -120.48146 34913 ft 465 kts 117°
2026-05-05 21:08 45.94120 -120.40346 34917 ft 461 kts 117°
2026-05-05 21:09 45.90670 -120.32620 34910 ft 458 kts 117°
2026-05-05 21:09 45.87251 -120.24982 34907 ft 456 kts 117°
2026-05-05 21:10 45.83823 -120.17340 34922 ft 455 kts 117°
2026-05-05 21:10 45.80391 -120.09707 34928 ft 456 kts 117°
2026-05-05 21:11 45.76940 -120.02054 34910 ft 458 kts 117°
2026-05-05 21:11 45.73488 -119.94421 34920 ft 460 kts 117°
2026-05-05 21:12 45.69998 -119.86727 34915 ft 462 kts 117°
2026-05-05 21:12 45.66487 -119.79007 34924 ft 464 kts 117°
2026-05-05 21:13 45.62967 -119.71289 34925 ft 465 kts 117°
2026-05-05 21:13 45.59448 -119.63593 34927 ft 465 kts 117°
2026-05-05 21:14 45.55904 -119.55866 34926 ft 465 kts 117°
2026-05-05 21:14 45.52355 -119.48149 34935 ft 465 kts 117°
2026-05-05 21:15 45.48807 -119.40455 34935 ft 464 kts 117°
2026-05-05 21:15 45.45280 -119.32825 34935 ft 463 kts 117°
2026-05-05 21:16 45.41736 -119.25183 34942 ft 462 kts 117°
2026-05-05 21:16 45.38195 -119.17563 34947 ft 461 kts 117°
2026-05-05 21:17 45.35254 -119.11249 34947 ft 461 kts 117°
2026-05-05 21:17 45.31130 -119.02422 34946 ft 461 kts 117°
2026-05-05 21:18 45.27579 -118.94840 34950 ft 461 kts 117°
2026-05-05 21:18 45.24018 -118.87261 34950 ft 461 kts 117°
2026-05-05 21:19 45.20455 -118.79697 34956 ft 461 kts 117°
2026-05-05 21:19 45.16890 -118.72146 34973 ft 461 kts 117°
2026-05-05 21:20 45.13330 -118.64627 34981 ft 463 kts 117°
2026-05-05 21:20 45.09726 -118.57035 34984 ft 464 kts 117°
2026-05-05 21:21 45.06115 -118.49448 34986 ft 465 kts 117°
2026-05-05 21:21 45.02521 -118.41913 34992 ft 466 kts 117°
2026-05-05 21:22 44.95104 -118.27163 34965 ft 470 kts 121°
2026-05-05 21:23 44.91110 -118.19865 34953 ft 469 kts 121°
2026-05-05 21:23 44.87175 -118.12649 34959 ft 467 kts 121°
2026-05-05 21:24 44.83233 -118.05375 34967 ft 467 kts 121°
2026-05-05 21:24 44.79292 -117.98096 34979 ft 467 kts 121°
2026-05-05 21:25 44.75346 -117.90826 34973 ft 468 kts 121°
2026-05-05 21:25 44.71417 -117.83609 34968 ft 468 kts 121°
2026-05-05 21:26 44.67457 -117.76356 34959 ft 468 kts 121°
2026-05-05 21:26 44.63488 -117.69105 34949 ft 468 kts 121°
2026-05-05 21:27 44.59506 -117.61847 34928 ft 469 kts 121°
2026-05-05 21:27 44.55548 -117.54653 34915 ft 469 kts 121°
2026-05-05 21:28 44.51558 -117.47416 34890 ft 469 kts 121°
2026-05-05 21:28 44.47569 -117.40200 34890 ft 468 kts 121°
2026-05-05 21:29 44.43592 -117.33025 34905 ft 465 kts 121°
2026-05-05 21:29 44.39648 -117.25921 34889 ft 465 kts 121°
2026-05-05 21:30 44.35680 -117.18772 34880 ft 464 kts 120°
2026-05-05 21:30 44.31991 -117.11417 34884 ft 461 kts 117°
2026-05-05 21:31 44.28426 -117.03971 34881 ft 462 kts 117°
2026-05-05 21:31 44.24862 -116.96581 34881 ft 463 kts 117°
2026-05-05 21:32 44.21233 -116.89149 34886 ft 464 kts 117°
2026-05-05 21:32 44.17587 -116.81729 34886 ft 465 kts 117°
2026-05-05 21:33 44.13922 -116.74294 34879 ft 466 kts 117°
2026-05-05 21:33 44.10402 -116.67167 34875 ft 467 kts 117°
2026-05-05 21:34 44.06715 -116.59722 34860 ft 467 kts 117°
2026-05-05 21:34 44.03024 -116.52285 34850 ft 467 kts 117°
2026-05-05 21:35 43.99330 -116.44864 34843 ft 467 kts 117°
2026-05-05 21:35 43.95658 -116.37505 34844 ft 466 kts 118°
2026-05-05 21:36 43.91966 -116.30123 34847 ft 465 kts 117°
2026-05-05 21:36 43.88275 -116.22760 34847 ft 465 kts 118°
2026-05-05 21:37 43.84596 -116.15440 34848 ft 466 kts 117°
2026-05-05 21:37 43.80887 -116.08079 34847 ft 466 kts 118°
2026-05-05 21:38 43.77179 -116.00740 34852 ft 465 kts 118°
2026-05-05 21:38 43.73489 -115.93452 34841 ft 464 kts 117°
2026-05-05 21:39 43.69783 -115.86151 34839 ft 464 kts 118°
2026-05-05 21:39 43.66075 -115.78861 34828 ft 464 kts 118°
2026-05-05 21:40 43.62324 -115.71583 34820 ft 466 kts 119°
2026-05-05 21:40 43.58434 -115.64476 34814 ft 467 kts 120°
2026-05-05 21:41 43.54479 -115.57351 34807 ft 467 kts 120°
2026-05-05 21:41 43.50546 -115.50236 34799 ft 467 kts 120°
2026-05-05 21:42 43.46630 -115.43130 34810 ft 466 kts 120°
2026-05-05 21:42 43.42730 -115.36059 34798 ft 466 kts 120°
2026-05-05 21:43 43.38801 -115.28955 34795 ft 467 kts 120°
2026-05-05 21:43 43.34867 -115.21859 34788 ft 468 kts 120°
2026-05-05 21:44 43.30917 -115.14753 34793 ft 468 kts 120°
2026-05-05 21:44 43.26995 -115.07714 34792 ft 468 kts 120°
2026-05-05 21:45 43.23035 -115.00625 34801 ft 468 kts 120°
2026-05-05 21:45 43.19068 -114.93540 34812 ft 468 kts 120°
2026-05-05 21:46 43.15105 -114.86479 34842 ft 467 kts 121°
2026-05-05 21:46 43.11138 -114.79428 34852 ft 467 kts 121°
2026-05-05 21:47 43.07193 -114.72432 34873 ft 467 kts 121°
2026-05-05 21:47 43.03222 -114.65407 34888 ft 467 kts 121°
2026-05-05 21:48 42.99245 -114.58386 34883 ft 467 kts 121°
2026-05-05 21:48 42.95261 -114.51371 34871 ft 468 kts 121°
2026-05-05 21:49 42.91269 -114.44360 34878 ft 468 kts 121°
2026-05-05 21:49 42.87292 -114.37390 34886 ft 469 kts 121°
2026-05-05 21:50 42.83289 -114.30392 34887 ft 468 kts 121°
2026-05-05 21:50 42.79278 -114.23395 34878 ft 468 kts 121°
2026-05-05 21:51 42.75295 -114.16465 34862 ft 468 kts 121°
2026-05-05 21:51 42.71285 -114.09502 34849 ft 467 kts 121°
2026-05-05 21:52 42.65273 -113.99093 34861 ft 466 kts 121°
2026-05-05 21:53 42.61270 -113.92181 34882 ft 465 kts 121°
2026-05-05 21:53 42.57259 -113.85362 34881 ft 468 kts 125°
2026-05-05 21:54 42.52668 -113.79039 34906 ft 472 kts 130°
2026-05-05 21:54 42.47890 -113.72904 34889 ft 472 kts 130°
2026-05-05 21:54 42.45524 -113.69812 34702 ft 476 kts 129°
2026-05-05 21:55 42.43155 -113.66676 34451 ft 475 kts 129°
2026-05-05 21:55 42.40836 -113.63586 34208 ft 473 kts 129°
2026-05-05 21:55 42.38498 -113.60464 33965 ft 473 kts 129°
2026-05-05 21:55 42.36155 -113.57334 33728 ft 473 kts 129°
2026-05-05 21:56 42.33815 -113.54213 33449 ft 474 kts 129°
2026-05-05 21:56 42.31460 -113.51079 33180 ft 475 kts 129°
2026-05-05 21:56 42.29105 -113.47951 32907 ft 475 kts 129°
2026-05-05 21:56 42.26743 -113.44820 32647 ft 476 kts 129°
2026-05-05 21:57 42.24381 -113.41695 32392 ft 477 kts 129°
2026-05-05 21:57 42.22009 -113.38559 32142 ft 477 kts 129°
2026-05-05 21:57 42.19672 -113.35472 31892 ft 478 kts 129°
2026-05-05 21:57 42.17295 -113.32336 31454 ft 477 kts 130°
2026-05-05 21:58 42.14918 -113.29201 30826 ft 478 kts 130°
2026-05-05 21:58 42.12541 -113.26071 30378 ft 474 kts 130°
2026-05-05 21:58 42.10187 -113.22978 29900 ft 472 kts 130°
2026-05-05 21:58 42.07848 -113.19904 29356 ft 469 kts 130°
2026-05-05 21:59 42.05519 -113.16847 28830 ft 465 kts 130°
2026-05-05 21:59 42.03212 -113.13823 28360 ft 460 kts 130°
2026-05-05 21:59 42.00927 -113.10831 27881 ft 456 kts 131°
2026-05-05 21:59 41.98694 -113.07908 27398 ft 453 kts 131°
2026-05-05 22:00 41.96446 -113.04969 26920 ft 449 kts 131°
2026-05-05 22:00 41.94217 -113.02056 26445 ft 445 kts 131°
2026-05-05 22:00 41.92006 -112.99171 25986 ft 442 kts 132°
2026-05-05 22:00 41.89808 -112.96305 25530 ft 438 kts 132°
2026-05-05 22:01 41.87629 -112.93466 25078 ft 435 kts 132°
2026-05-05 22:01 41.85462 -112.90646 24627 ft 432 kts 133°
2026-05-05 22:01 41.83311 -112.87850 24183 ft 429 kts 133°
2026-05-05 22:01 41.81177 -112.85079 23734 ft 427 kts 133°
2026-05-05 22:02 41.79050 -112.82319 23245 ft 424 kts 134°
2026-05-05 22:02 41.76964 -112.79615 22740 ft 422 kts 134°
2026-05-05 22:02 41.74866 -112.76899 22251 ft 415 kts 134°
2026-05-05 22:02 41.72802 -112.74228 21801 ft 410 kts 134°
2026-05-05 22:03 41.70759 -112.71589 21354 ft 407 kts 134°
2026-05-05 22:03 41.68731 -112.68970 20914 ft 404 kts 134°
2026-05-05 22:03 41.66710 -112.66365 20479 ft 402 kts 134°
2026-05-05 22:03 41.64703 -112.63781 20035 ft 400 kts 134°
2026-05-05 22:04 41.62731 -112.61243 19612 ft 397 kts 134°
2026-05-05 22:04 41.60747 -112.58692 19177 ft 396 kts 134°
2026-05-05 22:04 41.58767 -112.56146 18741 ft 394 kts 134°
2026-05-05 22:04 41.56796 -112.53614 18292 ft 394 kts 134°
2026-05-05 22:05 41.54827 -112.51087 17830 ft 391 kts 134°
2026-05-05 22:05 41.52872 -112.48584 17380 ft 385 kts 135°
2026-05-05 22:05 41.50901 -112.46214 16884 ft 376 kts 137°
2026-05-05 22:05 41.48947 -112.43972 16472 ft 366 kts 138°
2026-05-05 22:06 41.47071 -112.41816 16099 ft 355 kts 137°
2026-05-05 22:06 41.45229 -112.39684 15722 ft 346 kts 137°
2026-05-05 22:06 41.43299 -112.37836 15373 ft 338 kts 151°
2026-05-05 22:06 41.41200 -112.36443 15060 ft 337 kts 154°
2026-05-05 22:07 41.39081 -112.35115 14700 ft 336 kts 154°
2026-05-05 22:07 41.36988 -112.33802 14558 ft 328 kts 154°
2026-05-05 22:07 41.34950 -112.32506 14404 ft 322 kts 153°
2026-05-05 22:07 41.32943 -112.31213 14275 ft 319 kts 153°
2026-05-05 22:08 41.30963 -112.29928 14165 ft 325 kts 153°
2026-05-05 22:08 41.28906 -112.28587 13858 ft 332 kts 153°
2026-05-05 22:08 41.26835 -112.27236 13515 ft 330 kts 153°
2026-05-05 22:08 41.24794 -112.25907 13160 ft 323 kts 153°
2026-05-05 22:09 41.22793 -112.24604 12895 ft 318 kts 153°
2026-05-05 22:09 41.20852 -112.23342 12763 ft 304 kts 153°
2026-05-05 22:09 41.18990 -112.22132 12646 ft 291 kts 153°
2026-05-05 22:09 41.17209 -112.20974 12537 ft 281 kts 153°
2026-05-05 22:10 41.15454 -112.19832 12444 ft 280 kts 153°
2026-05-05 22:10 41.13966 -112.18865 12362 ft 280 kts 153°
2026-05-05 22:10 41.12218 -112.17730 12260 ft 280 kts 153°
2026-05-05 22:10 41.10474 -112.16598 12163 ft 279 kts 153°
2026-05-05 22:11 41.08728 -112.15467 12070 ft 279 kts 153°
2026-05-05 22:11 41.06934 -112.14478 11939 ft 279 kts 166°
2026-05-05 22:11 41.05033 -112.13982 11843 ft 278 kts 172°
2026-05-05 22:11 41.03120 -112.13621 11718 ft 278 kts 173°
2026-05-05 22:12 41.01212 -112.13267 11611 ft 277 kts 172°
2026-05-05 22:12 40.99330 -112.12902 11500 ft 277 kts 172°
2026-05-05 22:12 40.97429 -112.12516 11384 ft 276 kts 172°
2026-05-05 22:12 40.95527 -112.12116 11272 ft 280 kts 172°
2026-05-05 22:13 40.93590 -112.11703 11170 ft 284 kts 172°
2026-05-05 22:13 40.91638 -112.11284 11062 ft 284 kts 172°
2026-05-05 22:13 40.89689 -112.10880 10988 ft 281 kts 174°
2026-05-05 22:13 40.87755 -112.10614 10984 ft 277 kts 176°
2026-05-05 22:14 40.85834 -112.10402 10987 ft 278 kts 177°
2026-05-05 22:14 40.83889 -112.10193 10999 ft 281 kts 176°
2026-05-05 22:14 40.81965 -112.09981 10997 ft 281 kts 176°
2026-05-05 22:14 40.80020 -112.09760 11000 ft 281 kts 176°
2026-05-05 22:15 40.78073 -112.09535 10991 ft 280 kts 176°
2026-05-05 22:15 40.76131 -112.09309 10983 ft 280 kts 176°
2026-05-05 22:15 40.74199 -112.09083 10983 ft 278 kts 176°
2026-05-05 22:15 40.72271 -112.08856 10991 ft 278 kts 176°
2026-05-05 22:16 40.70349 -112.08627 11009 ft 278 kts 176°
2026-05-05 22:16 40.68416 -112.08387 11019 ft 280 kts 176°
2026-05-05 22:16 40.66501 -112.08141 11019 ft 280 kts 176°
2026-05-05 22:16 40.64561 -112.07889 11019 ft 281 kts 176°
2026-05-05 22:17 40.62610 -112.07633 11014 ft 282 kts 176°
2026-05-05 22:17 40.60660 -112.07379 11018 ft 282 kts 176°
2026-05-05 22:17 40.58704 -112.07126 11019 ft 283 kts 175°
2026-05-05 22:17 40.56747 -112.06876 11023 ft 283 kts 176°
2026-05-05 22:18 40.54782 -112.06627 11015 ft 284 kts 176°
2026-05-05 22:18 40.52817 -112.06377 11007 ft 283 kts 176°
2026-05-05 22:18 40.50889 -112.06132 10999 ft 282 kts 176°
2026-05-05 22:18 40.48936 -112.05887 10999 ft 282 kts 176°
2026-05-05 22:19 40.46982 -112.05642 10988 ft 282 kts 175°
2026-05-05 22:19 40.45031 -112.05396 10978 ft 282 kts 174°
2026-05-05 22:19 40.43217 -112.04544 10966 ft 276 kts 144°
2026-05-05 22:19 40.41950 -112.02736 10961 ft 267 kts 115°
2026-05-05 22:20 40.41501 -112.00432 10957 ft 260 kts 86°
2026-05-05 22:20 40.41869 -111.98149 10988 ft 254 kts 65°
2026-05-05 22:20 40.42332 -111.96745 10972 ft 255 kts 62°
2026-05-05 22:20 40.43769 -111.94390 10977 ft 245 kts 27°
2026-05-05 22:21 40.45379 -111.93702 10545 ft 255 kts
2026-05-05 22:21 40.47142 -111.93788 10138 ft 254 kts 353°
2026-05-05 22:21 40.48890 -111.93989 9765 ft 252 kts 353°
2026-05-05 22:21 40.50626 -111.94200 9404 ft 248 kts 353°
2026-05-05 22:22 40.52336 -111.94404 9067 ft 245 kts 353°
2026-05-05 22:22 40.53458 -111.94534 8856 ft 242 kts 353°
2026-05-05 22:22 40.55106 -111.94724 8569 ft 234 kts 353°
2026-05-05 22:22 40.56699 -111.94908 8239 ft 226 kts 353°
2026-05-05 22:23 40.58243 -111.95086 7955 ft 218 kts 353°
2026-05-05 22:23 40.59724 -111.95257 7671 ft 209 kts 352°
2026-05-05 22:23 40.61604 -111.95476 7326 ft 203 kts 352°
2026-05-05 22:23 40.63011 -111.95639 7070 ft 203 kts 353°
2026-05-05 22:24 40.63939 -111.95746 6881 ft 203 kts 353°
2026-05-05 22:24 40.65325 -111.95900 6709 ft 196 kts 354°
2026-05-05 22:24 40.66660 -111.96053 6454 ft 188 kts 354°
2026-05-05 22:24 40.68340 -111.96249 6121 ft 179 kts 355°
2026-05-05 22:25 40.69158 -111.96344 5979 ft 176 kts 355°
2026-05-05 22:25 40.70348 -111.96483 5743 ft 170 kts 355°
2026-05-05 22:25 40.71514 -111.96619 5516 ft 168 kts 354°
2026-05-05 22:25 40.72676 -111.96754 5309 ft 167 kts 354°
2026-05-05 22:26 40.73839 -111.96898 5059 ft 169 kts 354°
2026-05-05 22:26 40.75006 -111.97037 4814 ft 168 kts 355°
2026-05-05 22:26 40.76174 -111.97170 4550 ft 169 kts 357°
2026-05-05 22:26 40.77345 -111.97305 4293 ft 169 kts 357°
2026-05-05 22:27 40.78461 -111.97433 4231 ft 139 kts 356°
2026-05-05 22:27 40.79200 -111.97518 4230 ft 74 kts 355°
2026-05-05 22:27 40.79472 -111.97599 4228 ft 28 kts 332°
2026-05-05 22:27 40.79562 -111.97691 4228 ft 10 kts 283°
2026-05-05 22:28 40.79527 -111.97763 4229 ft 10 kts 207°
2026-05-05 22:28 40.79460 -111.97764 4229 ft 10 kts 174°
2026-05-05 22:28 40.79376 -111.97754 4230 ft 14 kts 174°
2026-05-05 22:28 40.79267 -111.97741 4230 ft 16 kts 174°
2026-05-05 22:29 40.79161 -111.97729 4230 ft 15 kts 174°
2026-05-05 22:29 40.79059 -111.97719 4230 ft 14 kts 176°
2026-05-05 22:29 40.78960 -111.97706 4230 ft 14 kts 174°
2026-05-05 22:29 40.78870 -111.97696 4230 ft 10 kts 176°
2026-05-05 22:30 40.78835 -111.97757 4230 ft 10 kts 263°
2026-05-05 22:30 40.78827 -111.97844 4228 ft 9 kts 261°
2026-05-05 22:30 40.78817 -111.97928 4230 ft 9 kts 264°
2026-05-05 22:30 40.78810 -111.98017 4230 ft 10 kts 263°
2026-05-05 22:31 40.78804 -111.98103 4230 ft 9 kts 264°
2026-05-05 22:31 40.78798 -111.98188 4230 ft 9 kts 264°
2026-05-05 22:31 40.78793 -111.98270 4230 ft 9 kts 266°
2026-05-05 22:31 40.78827 -111.98307 4230 ft 6 kts 359°
2026-05-05 22:32 40.78854 -111.98308 4230 ft 0 kts 355°